When you browse on this site, cookies collect data to enhance your experience and personalize the content and advertising you see.
Visit our Privacy Policy to learn more. By continuing to use the site, you agree to this use of cookies and data.
  • In Spain
  • List of Countries
  • For 7 days
  • Water Temperature
  • Weather Map
  • Weather Widgets
  • user-avatar
    Login

    Hourly Weather Mansa Konko

    Today, 24 February, Monday

    Time Temperature Precipitation Wind Pressure Humidity
    00:00 +30°C° 0 mm 4 mps 758 mmHg 32%
    01:00 +31°C° 0 mm 3 mps 758 mmHg 31%
    02:00 +31°C° 0 mm 2 mps 758 mmHg 30%
    03:00 +30°C° 0 mm 2 mps 757 mmHg 31%
    04:00 +30°C° 0 mm 2 mps 757 mmHg 32%
    05:00 +30°C° 0 mm 2 mps 757 mmHg 32%
    06:00 +31°C° 0 mm 3 mps 757 mmHg 29%
    07:00 +33°C° 0 mm 3 mps 758 mmHg 26%
    08:00 +34°C° 0 mm 4 mps 758 mmHg 23%
    09:00 +37°C° 0 mm 5 mps 758 mmHg 19%
    10:00 +40°C° 0 mm 6 mps 758 mmHg 15%
    11:00 +44°C° 0 mm 7 mps 757 mmHg 11%
    12:00 +45°C° 0 mm 7 mps 756 mmHg 9%
    13:00 +46°C° 0 mm 6 mps 755 mmHg 7%
    14:00 +47°C° 0 mm 6 mps 754 mmHg 5%
    15:00 +47°C° 0 mm 5 mps 754 mmHg 5%
    16:00 +47°C° 0 mm 5 mps 754 mmHg 5%
    17:00 +45°C° 0 mm 4 mps 754 mmHg 5%
    18:00 +43°C° 0 mm 4 mps 754 mmHg 6%
    19:00 +40°C° 0 mm 3 mps 755 mmHg 7%
    20:00 +37°C° 0 mm 2 mps 755 mmHg 7%
    21:00 +37°C° 0 mm 3 mps 755 mmHg 8%
    22:00 +36°C° 0 mm 3 mps 755 mmHg 9%
    23:00 +36°C° 0 mm 4 mps 755 mmHg 9%

    Tomorrow, 25 February, Tuesday

    Time Temperature Precipitation Wind Pressure Humidity
    00:00 +36°C° 0 mm 4 mps 755 mmHg 9%
    01:00 +36°C° 0 mm 4 mps 755 mmHg 10%
    02:00 +36°C° 0 mm 3 mps 755 mmHg 10%
    03:00 +36°C° 0 mm 4 mps 755 mmHg 10%
    04:00 +36°C° 0 mm 4 mps 755 mmHg 10%
    05:00 +37°C° 0 mm 4 mps 755 mmHg 9%
    06:00 +36°C° 0 mm 4 mps 755 mmHg 10%
    07:00 +36°C° 0 mm 4 mps 756 mmHg 10%
    08:00 +36°C° 0 mm 4 mps 757 mmHg 10%
    09:00 +40°C° 0 mm 5 mps 757 mmHg 8%
    10:00 +42°C° 0 mm 6 mps 756 mmHg 7%
    11:00 +46°C° 0 mm 6 mps 756 mmHg 6%
    12:00 +46°C° 0 mm 6 mps 755 mmHg 6%
    13:00 +47°C° 0 mm 6 mps 754 mmHg 6%
    14:00 +48°C° 0 mm 6 mps 753 mmHg 6%
    15:00 +48°C° 0 mm 5 mps 753 mmHg 6%
    16:00 +47°C° 0 mm 4 mps 753 mmHg 6%
    17:00 +47°C° 0 mm 4 mps 752 mmHg 6%
    18:00 +43°C° 0 mm 3 mps 753 mmHg 9%
    19:00 +38°C° 0 mm 2 mps 754 mmHg 12%
    20:00 +35°C° 0 mm 2 mps 755 mmHg 15%
    21:00 +32°C° 0 mm 2 mps 755 mmHg 26%
    22:00 +29°C° 0 mm 2 mps 755 mmHg 37%
    23:00 +27°C° 0 mm 2 mps 756 mmHg 49%

    Day after tomorrow, 26 February, Wednesday

    Time Temperature Precipitation Wind Pressure Humidity
    00:00 +26°C° 0 mm 2 mps 756 mmHg 50%
    01:00 +26°C° 0 mm 1 mps 756 mmHg 51%
    02:00 +23°C° 0 mm 0 mps 756 mmHg 52%
    03:00 +25°C° 0 mm 1 mps 755 mmHg 50%
    04:00 +25°C° 0 mm 1 mps 755 mmHg 47%
    05:00 +25°C° 0 mm 1 mps 755 mmHg 45%
    06:00 +27°C° 0 mm 3 mps 756 mmHg 34%
    07:00 +29°C° 0 mm 4 mps 756 mmHg 23%
    08:00 +33°C° 0 mm 6 mps 757 mmHg 12%
    09:00 +36°C° 0 mm 6 mps 757 mmHg 10%
    10:00 +40°C° 0 mm 7 mps 756 mmHg 8%
    11:00 +44°C° 0 mm 7 mps 756 mmHg 6%
    12:00 +45°C° 0 mm 6 mps 755 mmHg 5%
    13:00 +46°C° 0 mm 6 mps 754 mmHg 5%
    14:00 +47°C° 0 mm 5 mps 753 mmHg 5%
    15:00 +47°C° 0 mm 5 mps 753 mmHg 5%
    16:00 +47°C° 0 mm 4 mps 753 mmHg 5%
    17:00 +45°C° 0 mm 4 mps 753 mmHg 5%
    18:00 +42°C° 0 mm 3 mps 753 mmHg 9%
    19:00 +37°C° 0 mm 3 mps 754 mmHg 12%
    20:00 +34°C° 0 mm 2 mps 755 mmHg 15%
    21:00 +31°C° 0 mm 2 mps 756 mmHg 34%
    22:00 +28°C° 0 mm 2 mps 756 mmHg 53%
    23:00 +26°C° 0 mm 3 mps 756 mmHg 71%

    27 February, Thursday

    Time Temperature Precipitation Wind Pressure Humidity
    00:00 +25°C° 0 mm 2 mps 756 mmHg 76%
    01:00 +24°C° 0 mm 2 mps 756 mmHg 80%
    02:00 +24°C° 0 mm 2 mps 756 mmHg 84%
    03:00 +23°C° 0 mm 2 mps 756 mmHg 86%
    04:00 +23°C° 0 mm 1 mps 756 mmHg 87%
    05:00 +23°C° 0 mm 1 mps 756 mmHg 89%
    06:00 +24°C° 0 mm 1 mps 757 mmHg 80%
    07:00 +26°C° 0 mm 1 mps 757 mmHg 71%
    08:00 +27°C° 0 mm 1 mps 758 mmHg 62%
    09:00 +31°C° 0 mm 2 mps 758 mmHg 46%
    10:00 +36°C° 0 mm 3 mps 758 mmHg 30%
    11:00 +41°C° 0 mm 4 mps 757 mmHg 14%
    12:00 +42°C° 0 mm 4 mps 756 mmHg 11%
    13:00 +44°C° 0 mm 4 mps 756 mmHg 9%
    14:00 +45°C° 0 mm 4 mps 755 mmHg 7%
    15:00 +45°C° 0 mm 4 mps 754 mmHg 7%
    16:00 +45°C° 0 mm 4 mps 754 mmHg 7%
    17:00 +44°C° 0 mm 4 mps 754 mmHg 7%
    18:00 +41°C° 0 mm 4 mps 755 mmHg 10%
    19:00 +36°C° 0 mm 4 mps 755 mmHg 14%
    20:00 +33°C° 0 mm 3 mps 756 mmHg 18%
    21:00 +30°C° 0 mm 3 mps 756 mmHg 31%
    22:00 +27°C° 0 mm 3 mps 756 mmHg 44%
    23:00 +25°C° 0 mm 3 mps 757 mmHg 57%

    28 February, Friday

    Time Temperature Precipitation Wind Pressure Humidity
    00:00 +24°C° 0 mm 2 mps 756 mmHg 57%
    01:00 +24°C° 0 mm 2 mps 756 mmHg 56%
    02:00 +23°C° 0 mm 1 mps 756 mmHg 55%
    03:00 +23°C° 0 mm 1 mps 756 mmHg 49%
    04:00 +23°C° 0 mm 1 mps 756 mmHg 42%
    05:00 +23°C° 0 mm 1 mps 756 mmHg 36%
    06:00 +25°C° 0 mm 1 mps 757 mmHg 29%
    07:00 +27°C° 0 mm 2 mps 757 mmHg 22%
    08:00 +29°C° 0 mm 2 mps 758 mmHg 15%
    09:00 +32°C° 0 mm 2 mps 758 mmHg 11%
    10:00 +37°C° 0 mm 3 mps 757 mmHg 8%
    11:00 +42°C° 0 mm 3 mps 757 mmHg 5%
    12:00 +43°C° 0 mm 3 mps 756 mmHg 5%
    13:00 +45°C° 0 mm 2 mps 755 mmHg 4%
    14:00 +46°C° 0 mm 2 mps 754 mmHg 4%
    15:00 +44°C° 0 mm 1 mps 754 mmHg 4%
    16:00 +44°C° 0 mm 1 mps 754 mmHg 4%
    17:00 +43°C° 0 mm 1 mps 754 mmHg 5%
    18:00 +39°C° 0 mm 2 mps 754 mmHg 10%
    19:00 +35°C° 0 mm 3 mps 755 mmHg 15%
    20:00 +30°C° 0 mm 4 mps 756 mmHg 21%
    21:00 +28°C° 0 mm 4 mps 756 mmHg 26%
    22:00 +26°C° 0 mm 3 mps 757 mmHg 32%
    23:00 +25°C° 0 mm 3 mps 757 mmHg 38%

    29 February, Saturday

    Time Temperature Precipitation Wind Pressure Humidity
    00:00 +24°C° 0 mm 3 mps 757 mmHg 40%
    01:00 +23°C° 0 mm 2 mps 756 mmHg 42%
    02:00 +21°C° 0 mm 2 mps 756 mmHg 45%
    03:00 +21°C° 0 mm 2 mps 756 mmHg 41%
    04:00 +21°C° 0 mm 2 mps 756 mmHg 36%
    05:00 +22°C° 0 mm 1 mps 756 mmHg 32%
    06:00 +23°C° 0 mm 1 mps 757 mmHg 29%
    07:00 +25°C° 0 mm 1 mps 757 mmHg 27%
    08:00 +27°C° 0 mm 1 mps 757 mmHg 24%
    09:00 +31°C° 0 mm 2 mps 757 mmHg 18%
    10:00 +36°C° 0 mm 3 mps 757 mmHg 12%
    11:00 +41°C° 0 mm 4 mps 757 mmHg 7%
    12:00 +42°C° 0 mm 4 mps 756 mmHg 6%
    13:00 +44°C° 0 mm 4 mps 755 mmHg 6%
    14:00 +45°C° 0 mm 4 mps 754 mmHg 5%
    15:00 +45°C° 0 mm 3 mps 754 mmHg 5%
    16:00 +44°C° 0 mm 3 mps 754 mmHg 6%
    17:00 +43°C° 0 mm 2 mps 753 mmHg 6%
    18:00 +40°C° 0 mm 2 mps 754 mmHg 10%
    19:00 +36°C° 0 mm 3 mps 755 mmHg 13%
    20:00 +33°C° 0 mm 3 mps 755 mmHg 17%
    21:00 +29°C° 0 mm 3 mps 756 mmHg 25%
    22:00 +27°C° 0 mm 3 mps 756 mmHg 33%
    23:00 +25°C° 0 mm 3 mps 756 mmHg 41%
    Show more